アトラス彗星

P/2021 Q5 ( ATLAS )

English version
Home page
Updated on January 20, 2022

---------------------------------------------------------------------

・ プロフィール

発見日 2021年8月29日
発見光度 17.5等
発見者 Asteroid Terrestrial-Impact Last Alert System (ATLAS) search program

・ 写真集

・ 軌道要素

Epoch 2022 Jan. 21.0 TT = JDT 2459600.5
T 2021 Aug. 30.43472 TT                                 Rudenko
q   1.2345426            (2000.0)            P               Q
n   0.16547367     Peri.  180.89709     +0.49007630     -0.85669562
a   3.2858681      Node   239.77287     +0.80090580     +0.51541546
e   0.6242872      Incl.   10.73410     +0.34405684     +0.02048205
P   5.96
From 263 observations 2021 Aug. 29-Oct. 23, mean residual 0".7.

・ 星図

・ 光度変化

        m1 = 11.5 + 5 logΔ + 20.0 log r

---------------------------------------------------------------------

軌道要素はM.P.E.C. 2021-W138に掲載されたものです。
星図はステラナビゲータ Ver.10 (アストロアーツ) で作成したものです。
光度グラフはComet for Windowsで作成したものです。

---------------------------------------------------------------------

Copyright(C) Seiichi Yoshida (comet@aerith.net). All rights reserved.